[[{"header":{"parameterUnit":"m.s-1","parameterCategory":1,"la1":30.2991,"la2":30.254,"lo1":-89.0895,"lo2":-89.0444,"dx":0.0017,"dy":0.0017,"nx":28,"ny":28,"refTime":"2022-12-16T15:00:00:Z","depth":0,"parameterNumber":2,"parameterNumberName":"U-component_of_WINDS"},"data":[0,0,0,0,0,0,0,0,0,0,0,0,0,0,0,0,0,0,0,0,0,0,0,0,0,0,0,0,0,0,0,0,0,0,0,0,0,0,0,0,0,0,0,0,0,0,0,0,0,0,0,0,0,0,0,0,0,0,-0.4896,-0.4896,0,-0.4948,-0.4948,-0.4949,-0.4911,-0.491,-0.4908,-0.4906,-0.4962,-0.4965,-0.4968,0,0,0,0,0,0,0,0,0,0,0,0,0,-0.4764,-0.4767,-0.4895,-0.4896,-0.4897,-0.4948,-0.4948,-0.4949,-0.4912,-0.491,-0.4908,-0.4906,-0.4961,-0.4965,-0.4968,0,0,0,0,0,0,0,0,0,0,0,0,0,-0.4819,-0.4768,-0.4895,-0.4884,-0.4884,-0.4947,-0.4948,-0.4949,-0.4912,-0.491,-0.4907,-0.4905,-0.496,-0.4964,-0.4969,-0.5047,0,0,-0.4983,-0.4985,0,0,0,0,0,0,0,0,-0.4816,-0.4824,-0.4885,-0.4885,-0.4885,-0.492,-0.4922,-0.4982,-0.4913,-0.4901,-0.4906,-0.4903,-0.495,-0.4955,-0.4971,-0.5049,-0.5052,-0.4983,-0.4986,-0.4988,-0.4989,0,0,0,0,0,0,0,-0.4813,-0.4822,-0.4916,-0.4886,-0.4886,-0.4877,-0.4882,-0.4933,-0.4939,-0.4902,-0.49,-0.4906,-0.495,-0.4967,-0.4972,-0.5053,-0.4983,-0.4987,-0.499,-0.4991,-0.5197,-0.52,0,0,0,0,0,0,-0.481,-0.4819,-0.4915,-0.4918,-0.4844,-0.4881,-0.4887,-0.4912,-0.4939,-0.494,-0.4908,-0.4904,-0.496,-0.4967,-0.4974,-0.5067,-0.4988,-0.4992,-0.4995,-0.5195,-0.5198,-0.5201,0,0,0,0,0,0,-0.4807,-0.4818,-0.4912,-0.4868,-0.4879,-0.4886,-0.4914,-0.4914,-0.4931,-0.4943,-0.4944,-0.4924,-0.4958,-0.4967,-0.5029,-0.5069,-0.4994,-0.4998,-0.5191,-0.5196,-0.5199,-0.5255,0,0,0,0,0,0,-0.4803,-0.4818,-0.4848,-0.4869,-0.4881,-0.4967,-0.4917,-0.4917,-0.4938,-0.4934,-0.4959,-0.496,-0.4957,-0.5022,-0.5033,-0.5074,-0.5002,-0.5188,-0.5193,-0.5198,-0.525,-0.5261,-0.527,0,0,0,0,0,-0.4799,-0.4862,-0.4849,-0.4861,-0.4919,-0.4969,-0.4976,-0.4971,-0.4942,-0.4972,-0.498,-0.496,-0.5062,-0.5029,-0.5041,-0.5083,-0.5185,-0.5192,-0.5198,-0.5245,-0.5259,-0.527,0,0,0,0,0,0,-0.4847,-0.4864,-0.4851,-0.4922,-0.4944,-0.4963,-0.5001,-0.4985,-0.5016,-0.5011,-0.5003,-0.5008,-0.5073,-0.5084,-0.5047,-0.516,-0.5119,-0.5128,-0.5151,-0.5164,-0.5174,-0.5171,-0.5005,0,0,0,0,0,-0.4865,-0.4904,-0.4917,-0.4979,-0.4991,-0.4994,-0.5016,-0.5009,-0.5032,-0.5041,-0.5053,-0.5077,-0.5114,-0.5139,-0.5174,-0.525,-0.5255,-0.5285,-0.5295,-0.5303,-0.5312,-0.5353,-0.5367,-0.5221,-0.5221,-0.5221,0,0,-0.4905,-0.4919,-0.4944,-0.4989,-0.5006,-0.5047,-0.5002,-0.5047,-0.5078,-0.5048,-0.5107,-0.5117,-0.5142,-0.5211,-0.5242,-0.5222,-0.5353,-0.5311,-0.5318,-0.5322,-0.5361,-0.5375,-0.5387,-0.5225,-0.5225,-0.5224,0,0,-0.4998,-0.5012,-0.5065,-0.5082,-0.5107,-0.5108,-0.5121,-0.5141,-0.5146,-0.5204,-0.5183,-0.5219,-0.5283,-0.5302,-0.532,-0.5418,-0.5401,-0.5429,-0.5483,-0.5523,-0.5535,-0.5545,-0.5581,-0.5594,-0.5437,-0.5437,-0.5438,0,-0.5044,-0.5105,-0.5095,-0.5142,-0.5162,-0.5135,-0.5189,-0.5206,-0.5241,-0.5256,-0.5233,-0.5312,-0.5327,-0.5401,-0.5424,-0.5439,-0.5454,-0.5428,-0.5534,-0.5544,-0.5553,-0.5587,-0.5601,-0.5441,-0.544,-0.544,-0.544,0,-0.5161,-0.5203,-0.5243,-0.5277,-0.5301,-0.5351,-0.5349,-0.5375,-0.5366,-0.5369,-0.5429,-0.5446,-0.5484,-0.55,-0.5491,-0.5572,-0.5559,-0.5534,-0.5494,-0.557,-0.5603,-0.5616,-0.5446,-0.5445,-0.5443,-0.5443,0,0,-0.5289,-0.5315,-0.533,-0.5345,-0.5369,-0.5401,-0.5449,-0.5485,-0.5508,-0.5533,-0.5574,-0.5627,-0.5605,-0.5625,-0.5618,-0.5653,-0.5731,-0.5625,-0.5625,-0.5645,-0.5821,-0.5841,-0.5856,-0.5718,-0.572,-0.5722,-0.5819,0,-0.5384,-0.5469,-0.546,-0.5541,-0.558,-0.5553,-0.5595,-0.5615,-0.5619,-0.5652,-0.5657,-0.5696,-0.5662,-0.5674,-0.5707,-0.5714,-0.5766,-0.5707,-0.5757,-0.5759,-0.5754,-0.5872,-0.5894,-0.5984,-0.5832,-0.5834,-0.5835,0,-0.5508,-0.5536,-0.562,-0.5637,-0.5653,-0.5691,-0.5723,-0.5755,-0.5776,-0.5777,-0.5798,-0.5785,-0.5834,-0.5789,-0.5857,-0.5817,-0.5836,-0.5842,-0.5846,-0.5852,-0.5804,-0.5884,-0.6013,-0.6028,-0.5855,-0.5853,-0.5852,0,-0.5595,-0.5653,-0.5711,-0.5724,-0.5745,-0.5773,-0.5783,-0.5801,-0.5823,-0.5851,-0.5865,-0.5898,-0.5916,-0.5942,-0.5938,-0.5906,-0.6007,-0.5962,-0.6009,-0.601,-0.6034,-0.6033,-0.617,-0.6043,-0.6043,-0.6043,-0.6042,0,-0.5704,-0.5757,-0.575,-0.5786,-0.5844,-0.5833,-0.5891,-0.5898,-0.5914,-0.5951,-0.5929,-0.5964,-0.5955,-0.599,-0.5986,-0.6043,-0.6051,-0.6053,-0.6052,-0.6057,-0.6057,-0.6071,-0.6066,-0.6046,-0.6045,-0.6045,-0.6044,0,-0.5812,-0.5809,-0.5871,-0.5885,-0.589,-0.5932,-0.5944,-0.5978,-0.5979,-0.6026,-0.6036,-0.6038,-0.6078,-0.6075,-0.612,-0.6117,-0.6188,-0.6178,-0.6181,-0.6179,-0.6227,-0.6224,-0.6381,-0.6401,-0.6259,-0.626,-0.6261,0,-0.5883,-0.5923,-0.5941,-0.5963,-0.5975,-0.6012,-0.6034,-0.6024,-0.6047,-0.6073,-0.6104,-0.6141,-0.6171,-0.6235,-0.6241,-0.6275,-0.6267,-0.6319,-0.6272,-0.6275,-0.627,-0.6268,-0.6273,-0.633,-0.6331,-0.6333,-0.6334,0,-0.6009,-0.6006,-0.6038,-0.6069,-0.6095,-0.612,-0.6142,-0.6162,-0.6154,-0.6181,-0.6221,-0.6244,-0.6288,-0.6326,-0.6358,-0.6368,-0.635,-0.6348,-0.6361,-0.6367,-0.6368,-0.637,-0.6208,-0.6345,-0.6344,-0.6343,-0.6343,-0.6342,-0.6102,-0.6137,-0.6154,-0.6191,-0.6206,-0.6226,-0.6259,-0.6263,-0.6296,-0.6331,-0.6323,-0.6367,-0.6386,-0.6427,-0.644,-0.6475,-0.6456,-0.6475,-0.648,-0.6485,-0.6492,-0.636,-0.6481,-0.648,-0.648,-0.648,-0.6479,0,-0.6229,-0.6239,-0.6272,-0.6303,-0.6331,-0.631,-0.6333,-0.6358,-0.6398,-0.6416,-0.6445,-0.649,-0.6526,-0.6533,-0.6567,-0.6594,-0.6587,-0.6603,-0.6603,-0.6606,-0.6506,-0.6492,-0.6609,-0.6609,-0.6609,-0.6609,-0.6609,-0.6609,-0.6299,-0.6356,-0.6354,-0.6418,-0.6427,-0.647,-0.6485,-0.6504,-0.6519,-0.657,-0.6599,-0.6603,-0.6617,-0.6652,-0.6684,-0.6685,-0.6699,-0.672,-0.6718,-0.6625,-0.6613,-0.66,-0.6587,-0.6722,-0.6723,-0.6815,-0.6816,-0.6817]},{"header":{"parameterUnit":"m.s-1","parameterCategory":1,"la1":30.2991,"la2":30.254,"lo1":-89.0895,"lo2":-89.0444,"dx":0.0017,"dy":0.0017,"nx":28,"ny":28,"refTime":"2022-12-16T15:00:00:Z","depth":0,"parameterNumber":3,"parameterNumberName":"V-component_of_WINDS"},"data":[0,0,0,0,0,0,0,0,0,0,0,0,0,0,0,0,0,0,0,0,0,0,0,0,0,0,0,0,0,0,0,0,0,0,0,0,0,0,0,0,0,0,0,0,0,0,0,0,0,0,0,0,0,0,0,0,0,0,-6.31,-6.3101,0,-6.3179,-6.318,-6.3181,-6.3091,-6.3088,-6.3085,-6.3082,-6.3159,-6.3164,-6.3169,0,0,0,0,0,0,0,0,0,0,0,0,0,-6.287,-6.2874,-6.31,-6.3101,-6.3102,-6.3179,-6.318,-6.3181,-6.3092,-6.3088,-6.3084,-6.308,-6.3157,-6.3163,-6.3169,0,0,0,0,0,0,0,0,0,0,0,0,0,-6.2961,-6.2876,-6.31,-6.3067,-6.3065,-6.3179,-6.318,-6.3181,-6.3093,-6.3088,-6.3083,-6.3078,-6.3155,-6.3162,-6.317,-6.3319,0,0,-6.3194,-6.3197,0,0,0,0,0,0,0,0,-6.2956,-6.297,-6.3071,-6.307,-6.3067,-6.312,-6.3127,-6.3227,-6.3094,-6.3082,-6.3081,-6.3076,-6.315,-6.3158,-6.3183,-6.3322,-6.3326,-6.3194,-6.3199,-6.3202,-6.3205,0,0,0,0,0,0,0,-6.295,-6.2966,-6.3131,-6.3073,-6.307,-6.3047,-6.3055,-6.3145,-6.3143,-6.3083,-6.3077,-6.3087,-6.3148,-6.3176,-6.3184,-6.3327,-6.3194,-6.3201,-6.3206,-6.3209,-6.3592,-6.3597,0,0,0,0,0,0,-6.2948,-6.2961,-6.3129,-6.3134,-6.2998,-6.3056,-6.3064,-6.3108,-6.3142,-6.3142,-6.3092,-6.3083,-6.3165,-6.3175,-6.3187,-6.3363,-6.3202,-6.321,-6.3214,-6.3586,-6.3593,-6.3599,0,0,0,0,0,0,-6.2943,-6.2964,-6.3126,-6.3046,-6.3065,-6.3065,-6.3116,-6.3113,-6.3141,-6.3149,-6.3147,-6.3121,-6.3162,-6.3176,-6.3287,-6.3365,-6.3213,-6.322,-6.358,-6.3588,-6.3596,-6.3718,0,0,0,0,0,0,-6.2937,-6.2963,-6.302,-6.3048,-6.3069,-6.3226,-6.312,-6.3118,-6.3155,-6.3144,-6.3176,-6.3176,-6.3159,-6.3276,-6.3295,-6.3373,-6.3226,-6.3573,-6.3584,-6.3593,-6.3707,-6.3729,-6.3748,0,0,0,0,0,-6.2929,-6.305,-6.3023,-6.3044,-6.3141,-6.323,-6.3243,-6.3221,-6.3162,-6.3219,-6.3224,-6.3175,-6.3353,-6.3288,-6.3308,-6.339,-6.3568,-6.3581,-6.3593,-6.3697,-6.3725,-6.3748,0,0,0,0,0,0,-6.303,-6.3053,-6.3024,-6.3157,-6.3193,-6.3215,-6.3287,-6.3251,-6.3303,-6.329,-6.326,-6.3268,-6.3386,-6.3399,-6.3326,-6.3536,-6.3451,-6.3468,-6.3523,-6.3549,-6.357,-6.3564,-6.3233,0,0,0,0,0,-6.3068,-6.314,-6.3155,-6.3272,-6.3291,-6.3287,-6.3324,-6.3305,-6.334,-6.3354,-6.3367,-6.3402,-6.3465,-6.3508,-6.3567,-6.3708,-6.3713,-6.3774,-6.3795,-6.3812,-6.3827,-6.3903,-6.393,-6.364,-6.364,-6.3639,0,0,-6.3146,-6.3168,-6.3215,-6.3293,-6.3318,-6.3392,-6.3299,-6.3382,-6.3436,-6.3366,-6.3472,-6.3483,-6.352,-6.3647,-6.3703,-6.3661,-6.3908,-6.3828,-6.3841,-6.3847,-6.3918,-6.3946,-6.397,-6.3648,-6.3647,-6.3645,0,0,-6.3328,-6.3352,-6.3452,-6.3479,-6.3519,-6.3515,-6.3539,-6.3568,-6.3573,-6.3679,-6.3628,-6.3692,-6.3802,-6.383,-6.3859,-6.4053,-6.401,-6.4073,-6.4181,-6.4255,-6.4278,-6.4298,-6.4367,-6.4393,-6.4088,-6.4088,-6.4088,0,-6.342,-6.3531,-6.3507,-6.3594,-6.3629,-6.3571,-6.3671,-6.3699,-6.3755,-6.3781,-6.3733,-6.3871,-6.3891,-6.4024,-6.4072,-6.4097,-6.4123,-6.4069,-6.4277,-6.4297,-6.4315,-6.4381,-6.4407,-6.4095,-6.4094,-6.4094,-6.4093,0,-6.3643,-6.3721,-6.3797,-6.3855,-6.3899,-6.3992,-6.3981,-6.4028,-6.4005,-6.4006,-6.4115,-6.4138,-6.42,-6.423,-6.4208,-6.4361,-6.4333,-6.4282,-6.4196,-6.4351,-6.4412,-6.4437,-6.4106,-6.4103,-6.4101,-6.4099,0,0,-6.389,-6.3934,-6.3963,-6.3988,-6.4028,-6.4087,-6.4178,-6.424,-6.4282,-6.4323,-6.4397,-6.4492,-6.4445,-6.4478,-6.4458,-6.4524,-6.4676,-6.4464,-6.4464,-6.4503,-6.4846,-6.4884,-6.4914,-6.4648,-6.4653,-6.4656,-6.4843,0,-6.4072,-6.423,-6.4212,-6.4362,-6.4434,-6.4379,-6.4458,-6.449,-6.4494,-6.4554,-6.4556,-6.4625,-6.4557,-6.4577,-6.4639,-6.4644,-6.4744,-6.463,-6.4716,-6.472,-6.4709,-6.4946,-6.4987,-6.5161,-6.4866,-6.487,-6.4873,0,-6.4306,-6.4358,-6.4516,-6.4546,-6.4575,-6.4646,-6.4703,-6.4761,-6.4797,-6.4794,-6.4832,-6.4801,-6.489,-6.4803,-6.4925,-6.4849,-6.4882,-6.489,-6.4896,-6.4903,-6.4806,-6.4959,-6.5217,-6.5243,-6.491,-6.4907,-6.4905,0,-6.4471,-6.4579,-6.4688,-6.4712,-6.4749,-6.4801,-6.4818,-6.4849,-6.4888,-6.4937,-6.4962,-6.502,-6.5052,-6.5097,-6.5082,-6.502,-6.5208,-6.5119,-6.5208,-6.5209,-6.525,-6.5248,-6.5517,-6.5272,-6.5272,-6.5271,-6.5271,0,-6.4677,-6.4776,-6.4763,-6.483,-6.4939,-6.4916,-6.5025,-6.5035,-6.5063,-6.5131,-6.5087,-6.515,-6.5127,-6.5189,-6.5177,-6.5281,-6.5295,-6.5295,-6.5291,-6.53,-6.53,-6.5322,-6.5309,-6.5278,-6.5277,-6.5275,-6.5274,0,-6.4879,-6.4874,-6.499,-6.5016,-6.5025,-6.5105,-6.5126,-6.5189,-6.5189,-6.5275,-6.5294,-6.5293,-6.5365,-6.5354,-6.5433,-6.5425,-6.5554,-6.5535,-6.5543,-6.5538,-6.5628,-6.562,-6.592,-6.5959,-6.5689,-6.5692,-6.5694,0,-6.5011,-6.5086,-6.5121,-6.5164,-6.5186,-6.5255,-6.5296,-6.5276,-6.5319,-6.5366,-6.5423,-6.549,-6.5543,-6.5659,-6.5665,-6.5725,-6.5707,-6.5808,-6.5715,-6.5722,-6.5709,-6.5705,-6.5712,-6.5826,-6.5829,-6.5832,-6.5834,0,-6.5246,-6.524,-6.53,-6.5361,-6.5411,-6.5457,-6.5498,-6.5535,-6.5519,-6.557,-6.5643,-6.5685,-6.5766,-6.5833,-6.5889,-6.5906,-6.5868,-6.5863,-6.5887,-6.5896,-6.5898,-6.5899,-6.5593,-6.5856,-6.5854,-6.5852,-6.5851,-6.585,-6.5417,-6.5481,-6.5517,-6.5586,-6.5615,-6.5655,-6.5716,-6.5724,-6.5785,-6.5851,-6.5835,-6.5917,-6.5951,-6.6023,-6.6046,-6.6109,-6.6072,-6.6106,-6.6115,-6.6124,-6.6135,-6.5888,-6.6119,-6.6118,-6.6118,-6.6117,-6.6117,0,-6.5649,-6.567,-6.5734,-6.5794,-6.5848,-6.5809,-6.5853,-6.5901,-6.5975,-6.601,-6.6063,-6.6147,-6.6212,-6.6224,-6.6286,-6.6335,-6.6319,-6.6351,-6.6348,-6.6352,-6.6164,-6.6138,-6.6363,-6.6363,-6.6363,-6.6363,-6.6363,-6.6363,-6.5777,-6.5885,-6.5883,-6.6005,-6.6024,-6.6106,-6.6134,-6.6171,-6.6199,-6.6295,-6.635,-6.6357,-6.6383,-6.6446,-6.6504,-6.6506,-6.6531,-6.6571,-6.6566,-6.639,-6.6365,-6.6342,-6.6317,-6.6576,-6.6577,-6.6748,-6.675,-6.6751]}]]